Location: �quancourt
(50.0361°N, 3.0200°E)
Time: 09:56:25
(UTC+00:00)

Daily predictions for brighter satellites

Satellite Brightness Start Highest point End
(mag) Time Altitude Azimuth Time Altitude Azimuth Time Altitude Azimuth
Meteor 1-5 Rocket 4.2 20:00:49 10° N 20:06:09 65° ENE 20:11:24 10° SSE
Gbstr 26 Del rocket 4.5 19:59:26 10° WNW 20:07:28 85° NNE 20:14:24 10° ESE
SJ-6B 4.4 20:05:16 10° SSW 20:08:57 37° W 20:12:45 10° NNW
BREEZE M DEB (TANK) 4.3 20:04:59 10° W 20:09:05 86° S 20:23:51 10° E
ERS-2 3.6 20:05:42 10° N 20:09:10 42° WNW 20:12:36 10° SW
Terra 3.5 20:13:12 10° ESE 20:16:40 21° ENE 20:20:09 10° NNE
Meteor 1-11 Rocket 4.3 20:11:45 10° N 20:17:31 48° ENE 20:23:10 10° SE
MetOp-B 4.3 20:12:29 10° SSE 20:17:47 66° ENE 20:23:07 10° N
Cosmos 1515 Rocket 3.6 20:16:30 10° S 20:20:50 63° E 20:25:10 10° NNE
Cosmos 1340 Rocket 4.4 20:18:11 10° NNE 20:21:26 22° ENE 20:24:39 10° ESE
Cosmos 1633 Rocket 4.1 20:17:38 10° NNW 20:21:52 46° W 20:26:05 10° SSW
Cosmos 2228 Rocket 4.0 20:19:46 10° SSE 20:23:41 31° E 20:27:39 10° NNE
Tianhe-1 3.1 20:22:12 10° SSW 20:23:49 13° SSE 20:25:05 11° SE
Cosmos 2315 Rocket 4.3 20:18:10 10° SSW 20:24:33 79° W 20:30:59 10° N
Cosmos 1869 Rocket 4.3 20:21:08 10° N 20:25:10 36° ENE 20:29:01 11° SE
Resurs 01 Rocket 1.8 20:22:56 10° S 20:27:22 75° WSW 20:31:50 10° NNW
BREEZE M DEB (TANK) 2.0 20:24:07 10° W 20:29:11 63° SSW 20:31:13 12° ESE
SWARM C 4.5 20:26:02 10° N 20:29:22 77° E 20:32:40 10° S
SWARM A 4.2 20:26:09 10° N 20:29:29 80° E 20:32:48 10° S
Cosmos 2082 Rocket 2.3 20:24:17 10° NNW 20:29:56 85° WSW 20:35:34 10° SSE
Cosmos 1328 Rocket 4.2 20:27:31 10° SSW 20:31:53 60° WNW 20:36:15 10° N
USA 305 4.4 20:29:18 10° W 20:32:52 26° SW 20:36:25 10° SSE
SPOT 1/Viking Rocket 3.6 20:28:10 10° SSE 20:33:21 71° ENE 20:38:32 10° N
ERS-1 Rocket 3.7 20:29:27 11° SE 20:33:57 39° ENE 20:38:37 10° N
Cosmos 1470 Rocket 4.4 20:34:57 10° NNW 20:39:20 52° W 20:43:40 10° S
Cosmos 1943 Rocket 3.3 20:35:17 10° SSE 20:39:42 24° ESE 20:44:06 10° NE
Spot 2 Rocket 3.6 20:35:19 11° SSE 20:40:10 62° ENE 20:45:09 10° N
EP 1 4.2 20:38:12 10° SW 20:41:15 78° SE 20:43:53 10° NE
ERBS 2.6 20:38:47 10° NW 20:42:04 62° NNE 20:44:57 13° ESE
OBJECT-B 3.8 20:40:37 10° WSW 20:42:05 12° W 20:43:34 10° WNW
Meteor 1-10 Rocket 4.2 20:37:47 10° S 20:43:21 70° E 20:49:03 10° NNE
Cosmos 1536 3.2 20:41:40 10° N 20:45:35 48° ENE 20:48:44 15° SSE
CARTOSAT-1 3.8 20:42:26 13° SSE 20:46:11 57° ENE 20:50:25 10° N
Landsat 7 4.2 20:41:39 10° S 20:46:22 65° WSW 20:51:08 10° NNW
CZ-2C R/B 3.7 20:42:18 10° NNE 20:46:51 72° ESE 20:51:25 10° S
SPOT 5 3.5 20:42:26 13° SE 20:46:56 49° ENE 20:52:06 10° N
SPOT 3 Rocket 4.1 20:44:45 10° S 20:49:48 57° W 20:54:53 10° NNW
Cosmos 1271 Rocket 2.7 20:46:12 10° S 20:50:12 83° ESE 20:54:14 10° NNE
Cosmos 1680 Rocket 3.6 20:47:40 10° NNW 20:53:03 80° ENE 20:57:31 15° SSE
Cosmos 1933 Rocket 4.1 20:48:49 10° NNW 20:53:05 56° W 20:57:20 10° S
ISS -3.4 20:51:42 10° SW 20:54:53 42° SSE 20:58:07 10° E
Cosmos 2278 Rocket 2.8 20:50:41 10° SW 20:56:17 62° WNW 21:01:55 10° NNE
Cosmos 2084 Rocket 3.4 20:53:17 10° NW 20:57:33 87° NE 21:00:52 17° SE
SJ 16-02 1.9 20:54:27 10° SW 20:58:50 61° WNW 21:03:15 10° NNE
Cosmos 1544 3.5 20:55:27 10° N 20:58:58 47° ENE 21:01:17 19° SE
Cosmos 2369 Rocket 3.6 20:58:46 15° SE 21:01:09 20° E 21:05:05 10° NE
Cosmos 1666 3.9 21:02:05 10° NNW 21:05:35 38° W 21:09:03 10° SSW
JB-3 4.2 21:05:03 10° NNE 21:08:54 63° E 21:12:01 15° S
Cosmos 1733 Rocket 3.9 21:05:55 10° N 21:09:55 35° ENE 21:12:25 19° SE
ARIANE 5 R/B 2.7 21:10:14 15° S 21:13:44 73° WSW 21:18:06 10° NNW
RESURS DK-1 4.0 21:11:09 10° NNW 21:14:42 26° NE 21:17:43 13° E
BREEZE-M DEB (TANK) 1.6 21:16:29 10° W 21:18:25 42° SSW 21:18:58 34° SSE
Iridium 4 Rocket 4.1 21:13:36 10° SSW 21:19:27 69° W 21:25:21 10° N
USA 245 3.8 21:18:31 16° SSW 21:19:50 27° W 21:22:00 10° NW
CZ-4B DEB 4.5 21:21:13 28° SE 21:22:39 55° ENE 21:25:50 10° N
Cosmos 990 Rocket 4.0 21:19:38 10° SSW 21:24:53 88° ESE 21:30:11 10° NNE
Cosmos 1898 Rocket 3.5 21:22:35 10° SSW 21:27:53 77° ESE 21:33:15 10° NNE
ATLAS 2AS CENTAUR R/B 3.2 21:22:27 10° NW 21:29:36 55° WSW 21:34:29 19° SSE
USA 215 4.2 21:23:43 10° ENE 21:29:57 49° N 21:36:11 10° WNW
Meteor 1-27 Rocket 3.9 21:25:30 10° SSW 21:31:22 81° WNW 21:37:23 10° N
Cosmos 44 4.1 21:27:27 10° NW 21:32:38 47° WSW 21:35:56 20° S
Cosmos 1818 3.7 21:29:57 10° NW 21:35:25 66° SW 21:38:46 24° SSE
Cosmos 2154 Rocket 4.3 21:29:23 10° NNW 21:35:38 64° W 21:40:59 14° S
Cosmos 1743 2.7 21:33:11 10° N 21:37:05 85° W 21:39:06 27° S
Cosmos 962 Rocket 4.4 21:34:21 10° N 21:40:32 87° E 21:44:46 21° S
Nadezhda 1 Rocket 4.2 21:36:15 10° SSW 21:42:30 70° WNW 21:48:42 10° N
Meteor 1-19 Rocket 4.4 21:43:17 25° SSE 21:46:12 50° E 21:51:26 10° NNE
BREEZE-M R/B 1.7 21:45:05 10° W 21:47:29 69° SSW 21:47:59 51° SE
H-2A R/B 3.4 21:45:55 10° NNE 21:50:07 77° ESE 21:52:23 26° S
Cosmos 44 Rocket 4.5 21:47:17 10° NNW 21:52:16 41° NE 21:56:13 15° ESE
Meteor 2-4 Rocket 4.5 21:51:00 25° SE 21:53:27 36° E 21:58:28 10° NNE
Terra 2.1 21:51:09 24° S 21:53:59 65° WSW 21:58:44 10° NNW
Gbstr 26 Del rocket 4.4 21:47:21 10° WNW 21:54:42 54° SW 21:58:21 26° SSE
Cosmos 1461 3.0 21:50:55 10° SSW 21:55:37 76° SE 22:00:14 10° NE
Okean 1-7 4.4 21:56:31 22° ESE 21:57:27 23° E 22:00:53 10° NE
Cosmos 1340 Rocket 3.9 21:54:13 10° NNW 21:58:02 39° W 22:00:21 20° SSW
Cosmos 1862 Rocket 3.5 21:57:49 32° S 21:59:43 67° E 22:04:02 10° NNE
Cosmos 2297 3.9 21:55:24 10° SW 22:01:05 72° WNW 22:06:47 10° NNE
Okean 1 3.2 22:00:55 32° S 22:02:40 85° E 22:06:41 10° N
ATLAS CENTAUR R/B 2.2 22:10:15 28° E 22:10:15 28° E 22:12:59 10° ENE
Cosmos 1607 4.2 22:06:38 23° S 22:10:23 49° ESE 22:16:36 10° NE
ERS-1 Rocket 4.2 22:09:26 16° SSW 22:12:49 34° W 22:17:23 10° NNW
Cosmos 2082 Rocket 4.4 22:10:01 10° WNW 22:13:09 15° W 22:16:18 10° SW
Cosmos 2366 rocket 4.0 22:09:16 10° N 22:15:31 90° ESE 22:18:59 29° S
Cosmos 1515 4.2 22:13:57 26° SW 22:15:50 56° WNW 22:19:34 10° N
ERBS 3.9 22:15:18 10° W 22:17:42 22° SW 22:17:42 22° SW
Cosmos 2181 Rocket 3.9 22:16:13 25° S 22:20:03 89° E 22:26:13 10° N
Cosmos 1937 Rocket 4.1 22:17:25 10° SW 22:22:27 55° WNW 22:27:35 10° NNE
Cosmos 1943 Rocket 2.5 22:17:24 10° SW 22:22:59 65° WNW 22:28:34 10° NNE
ISS -3.6 22:28:16 10° W 22:31:38 72° N 22:35:01 10° ENE
Cosmos 1867 3.5 22:28:40 26° SSW 22:31:47 68° SE 22:37:15 10° NE
Cosmos 1656 Rocket 3.7 22:30:07 33° S 22:32:24 59° ESE 22:37:52 10° NE
Spot 4 3.9 22:30:35 36° SSE 22:32:31 71° ENE 22:37:22 10° N
Cosmos 1238 Rocket 4.3 22:29:39 10° NNW 22:35:12 45° W 22:37:52 24° SSW
Cosmos 1975 3.3 22:36:10 10° NNW 22:40:02 50° W 22:41:09 38° SW
Cosmos 1048 Rocket 4.0 22:35:26 10° NNW 22:40:45 77° WSW 22:42:47 38° S
Cosmos 2369 Rocket 2.2 22:40:29 20° SW 22:44:30 79° WNW 22:50:13 10° NNE
Cosmos 2098 4.1 22:41:49 10° N 22:44:48 82° W 22:44:52 81° SW
Cosmos 2218 Rocket 4.4 22:39:01 10° NNW 22:45:10 56° W 22:48:39 26° SSW
Cosmos 2344 4.3 22:37:40 10° NW 22:46:40 86° NE 22:56:38 18° SE
ALOS 2 2.9 22:47:43 39° SE 22:49:04 58° ENE 22:53:24 10° N
BREEZE-M DEB (TANK) 4.5 22:33:35 10° WNW 22:50:17 62° SSW 22:52:48 33° SE
Okean 3 4.0 22:51:44 40° ESE 22:52:25 44° E 22:56:27 10° NNE
RESURS DK-1 2.8 22:48:55 10° NW 22:52:55 46° WSW 22:53:36 41° SW
SL-27 R/B 2.3 22:49:38 10° NNW 22:52:58 70° WSW 22:53:01 69° WSW
Lacrosse 5 2.7 22:54:17 32° ESE 22:54:17 32° ESE 22:58:29 10° ENE
Cosmos 1356 Rocket 3.5 22:52:21 10° N 22:56:41 70° ENE 22:57:43 49° SE
NOSS 2-1 (E) 4.2 22:52:13 10° NW 22:56:58 77° NE 23:00:42 26° SE
Cosmos 1269 Rocket 4.5 22:55:30 10° NNW 23:00:43 54° ENE 23:03:10 30° SE
Cosmos 1300 Rocket 4.2 22:57:29 10° N 23:01:44 46° ENE 23:02:56 36° ESE
Nadezhda 3 Rocket 4.0 22:59:44 35° S 23:02:27 72° E 23:08:38 10° NNE
Cosmos 1908 Rocket 4.4 23:03:30 10° NNW 23:07:44 42° W 23:09:03 33° SW
Meteor 1-12 Rocket 4.2 23:04:09 10° NNW 23:10:02 85° W 23:12:18 39° S
USA 215 3.7 23:06:03 10° E 23:12:28 61° NNE 23:18:54 10° WNW
Cosmos 2298 Rocket 4.1 23:09:55 31° SW 23:12:30 75° WNW 23:17:50 10° NNE
Thor Agena Rocket 4.3 23:09:15 10° NNE 23:14:13 40° E 23:15:40 33° SE
Sich 1 Rocket 3.7 23:10:56 10° N 23:15:30 70° ENE 23:16:39 48° SE
COSMOS 2455 3.5 23:11:20 10° NNW 23:17:15 52° NE 23:21:45 17° ESE
Cosmos 1805 3.3 23:14:00 10° N 23:17:53 63° ENE 23:18:27 55° ESE
Cosmos 494 Rocket 4.4 23:14:04 10° NNW 23:19:05 50° WSW 23:20:30 39° SSW
Cosmos 1726 4.4 23:17:02 10° NNE 23:19:21 16° ENE 23:20:43 13° E
Cosmos 1378 3.0 23:22:00 68° SW 23:22:22 78° W 23:26:07 10° N
Cosmos 2242 Rocket 4.3 23:21:30 32° SW 23:23:07 47° WNW 23:27:29 10° N
Cosmos 1066 Rocket 4.2 23:22:33 40° S 23:24:38 75° E 23:30:15 10° NNE
MTI 4.0 23:22:16 10° NNE 23:24:49 58° NE 23:24:49 58° NE
Okean 2 Rocket 3.2 23:22:42 10° N 23:27:06 64° ENE 23:28:09 47° SE
Meteor 1-15 Rocket 4.2 23:22:00 10° NNW 23:27:45 85° E 23:30:02 39° SSE
COBE Rocket 4.0 23:26:12 44° S 23:27:51 77° WSW 23:33:04 10° NNW
Cosmos 2151 Rocket 4.0 23:24:39 10° N 23:29:07 54° ENE 23:30:21 40° SE
Cosmos 2227 Rocket 3.6 23:27:18 10° NNW 23:32:26 34° NE 23:37:33 10° ESE
Cosmos 44 Rocket 3.8 23:28:56 10° NW 23:33:56 47° WSW 23:34:54 41° SSW
Cosmos 2297 Rocket 3.2 23:29:22 10° NNW 23:34:47 42° NE 23:39:09 15° ESE
Okean 1-7 4.0 23:33:20 29° WSW 23:34:49 38° WNW 23:38:52 10° N
SAR-Lupe-2 3.4 23:31:45 10° NNE 23:35:21 82° WNW 23:35:36 74° SW
Cosmos 1766 3.3 23:32:28 10° N 23:36:26 70° E 23:36:58 59° SE
NOSS 2-1 (C) 4.4 23:38:29 10° NW 23:43:16 55° SW 23:45:14 39° S
COSMOS 2487 2.6 23:43:06 10° NNW 23:46:11 58° W 23:46:11 58° W
Cosmos 1125 Rocket 4.0 23:44:32 27° SW 23:47:12 53° WNW 23:52:20 10° NNE
ATLAS CENTAUR R/B 2.5 23:46:20 20° W 23:48:26 36° NW 23:52:03 10° NNE
Cosmos 1934 Rocket 4.0 23:44:57 10° NNW 23:51:03 70° W 23:53:27 38° SSW
BREEZE-M DEB (TANK) 4.1 23:50:23 10° WNW 23:51:45 21° WNW 23:51:45 21° WNW
Cosmos 1378 Rocket 4.2 23:53:20 38° SE 23:54:10 43° E 23:58:16 10° NNE
Cosmos 1470 3.7 23:52:17 10° N 23:56:02 41° ENE 23:57:01 34° ESE
